Time,TemperatureF,DewpointF,PressureIn,WindDirection,WindDirectionDegrees,WindSpeedMPH,WindSpeedGustMPH,Humidity,HourlyPrecipIn,Conditions,Clouds,dailyrainin,SoftwareType,DateUTC
2013-08-11 00:01:00,10.2,-5.0,29.87,NNE,18,0.0,0.0,52,0.00,,,0.00,TxWx,2013-08-11 05:01:00,
2013-08-11 00:08:00,9.7,-5.0,29.87,North,9,0.0,0.0,53,0.00,,,0.00,TxWx,2013-08-11 05:08:00,
2013-08-11 00:17:00,9.6,-4.0,29.87,North,11,0.0,0.0,55,0.00,,,0.00,TxWx,2013-08-11 05:17:00,
2013-08-11 00:24:00,9.1,-5.0,29.87,North,7,0.0,0.0,56,0.00,,,0.00,TxWx,2013-08-11 05:24:00,
2013-08-11 00:32:00,8.9,-4.0,29.87,NNE,18,0.0,0.0,57,0.00,,,0.00,TxWx,2013-08-11 05:32:00,
2013-08-11 00:37:00,9.0,-4.0,29.87,NNE,19,0.0,0.0,58,0.00,,,0.00,TxWx,2013-08-11 05:37:00,
2013-08-11 00:43:00,8.9,-4.0,29.87,NNE,20,0.0,0.0,59,0.00,,,0.00,TxWx,2013-08-11 05:43:00,
2013-08-11 00:48:00,8.8,-3.0,29.87,NNE,20,0.0,0.0,59,0.00,,,0.00,TxWx,2013-08-11 05:48:00,
2013-08-11 01:00:00,8.6,-3.0,29.86,NNE,20,0.0,0.0,61,0.00,,,0.00,TxWx,2013-08-11 06:00:00,
2013-08-11 01:05:00,8.4,-3.0,29.86,NNE,20,0.0,0.0,62,0.00,,,0.00,TxWx,2013-08-11 06:05:00,
2013-08-11 01:15:00,8.4,-3.0,29.87,NNE,20,0.0,0.0,63,0.00,,,0.00,TxWx,2013-08-11 06:15:00,
2013-08-11 01:20:00,8.5,-2.0,29.86,NNE,20,0.0,0.0,63,0.00,,,0.00,TxWx,2013-08-11 06:20:00,
2013-08-11 01:26:00,8.5,-2.0,29.86,NNE,19,0.0,0.0,63,0.00,,,0.00,TxWx,2013-08-11 06:26:00,
2013-08-11 01:34:00,8.4,-3.0,29.86,NNE,19,0.0,0.0,63,0.00,,,0.00,TxWx,2013-08-11 06:34:00,
2013-08-11 01:39:00,8.4,-3.0,29.86,NNE,19,0.0,0.0,64,0.00,,,0.00,TxWx,2013-08-11 06:39:00,
2013-08-11 01:44:00,8.4,-2.0,29.86,NNE,19,0.0,0.0,65,0.00,,,0.00,TxWx,2013-08-11 06:44:00,
2013-08-11 01:50:00,8.5,-1.0,29.87,NNE,19,0.0,0.0,66,0.00,,,0.00,TxWx,2013-08-11 06:50:00,
2013-08-11 01:55:00,8.3,-2.0,29.86,NNE,19,0.0,0.0,66,0.00,,,0.00,TxWx,2013-08-11 06:55:00,
2013-08-11 02:02:00,8.5,-1.0,29.86,NNE,19,0.0,0.0,67,0.00,,,0.00,TxWx,2013-08-11 07:02:00,
2013-08-11 02:07:00,8.4,-2.0,29.86,NNE,19,0.0,0.0,68,0.00,,,0.00,TxWx,2013-08-11 07:07:00,
2013-08-11 02:12:00,8.1,-1.0,29.86,NNE,19,0.0,0.0,68,0.00,,,0.00,TxWx,2013-08-11 07:12:00,
2013-08-11 02:19:00,8.3,-1.0,29.86,NNE,20,0.0,0.0,70,0.00,,,0.00,TxWx,2013-08-11 07:19:00,
2013-08-11 02:24:00,8.2,-1.0,29.86,NNE,19,0.0,0.0,70,0.00,,,0.00,TxWx,2013-08-11 07:24:00,
2013-08-11 02:29:00,8.4,0.0,29.86,NNE,20,0.0,0.0,71,0.00,,,0.00,TxWx,2013-08-11 07:29:00,
2013-08-11 02:35:00,8.5,1.0,29.86,NNW,344,0.0,0.0,71,0.00,,,0.00,TxWx,2013-08-11 07:35:00,
2013-08-11 02:41:00,8.5,-1.0,29.86,NNW,345,0.0,0.0,71,0.00,,,0.00,TxWx,2013-08-11 07:41:00,
2013-08-11 02:52:00,8.3,-1.0,29.86,North,359,0.0,0.0,70,0.00,,,0.00,TxWx,2013-08-11 07:52:00,
2013-08-11 02:59:00,8.0,-1.0,29.87,NNW,345,0.0,0.0,70,0.00,,,0.00,TxWx,2013-08-11 07:59:00,
2013-08-11 03:06:00,8.5,0.0,29.86,NNW,345,0.0,0.0,70,0.00,,,0.00,TxWx,2013-08-11 08:06:00,
2013-08-11 03:12:00,8.4,-1.0,29.86,NNW,346,0.0,0.0,70,0.00,,,0.00,TxWx,2013-08-11 08:12:00,
2013-08-11 03:18:00,8.3,-1.0,29.87,North,2,0.0,0.0,70,0.00,,,0.00,TxWx,2013-08-11 08:18:00,
2013-08-11 03:26:00,8.1,-1.0,29.86,North,2,0.0,0.0,69,0.00,,,0.00,TxWx,2013-08-11 08:26:00,
2013-08-11 03:34:00,8.2,-1.0,29.86,North,2,0.0,0.0,70,0.00,,,0.00,TxWx,2013-08-11 08:34:00,
2013-08-11 03:41:00,8.2,-1.0,29.86,North,2,0.0,0.0,70,0.00,,,0.00,TxWx,2013-08-11 08:41:00,
2013-08-11 03:47:00,8.1,-1.0,29.86,North,2,0.0,0.0,70,0.00,,,0.00,TxWx,2013-08-11 08:47:00,
2013-08-11 03:52:00,8.1,-1.0,29.86,North,2,0.0,0.0,70,0.00,,,0.00,TxWx,2013-08-11 08:52:00,
2013-08-11 03:57:00,8.3,0.0,29.86,NNE,18,0.0,0.0,71,0.00,,,0.00,TxWx,2013-08-11 08:57:00,
2013-08-11 04:03:00,8.3,-1.0,29.86,NNE,20,0.0,0.0,70,0.00,,,0.00,TxWx,2013-08-11 09:03:00,
2013-08-11 04:08:00,8.4,-1.0,29.86,NNE,19,0.0,0.0,71,0.00,,,0.00,TxWx,2013-08-11 09:08:00,
2013-08-11 04:16:00,8.4,-1.0,29.87,NNE,19,0.0,0.0,70,0.00,,,0.00,TxWx,2013-08-11 09:16:00,
2013-08-11 04:23:00,8.5,-1.0,29.87,NNE,19,0.0,0.0,70,0.00,,,0.00,TxWx,2013-08-11 09:23:00,
2013-08-11 04:29:00,8.5,-1.0,29.87,NNE,19,0.0,0.0,70,0.00,,,0.00,TxWx,2013-08-11 09:29:00,
2013-08-11 04:35:00,8.3,-1.0,29.87,NNE,19,0.0,0.0,69,0.00,,,0.00,TxWx,2013-08-11 09:35:00,
2013-08-11 04:40:00,8.3,-1.0,29.87,NNE,19,0.0,0.0,69,0.00,,,0.00,TxWx,2013-08-11 09:40:00,
2013-08-11 04:45:00,8.2,-1.0,29.87,NNE,19,0.0,0.0,69,0.00,,,0.00,TxWx,2013-08-11 09:45:00,
2013-08-11 04:50:00,8.3,-1.0,29.87,NNE,19,0.0,0.0,69,0.00,,,0.00,TxWx,2013-08-11 09:50:00,
2013-08-11 04:55:00,8.2,-1.0,29.87,NNE,19,0.0,0.0,69,0.00,,,0.00,TxWx,2013-08-11 09:55:00,
2013-08-11 05:02:00,8.2,-1.0,29.87,NNE,19,0.0,0.0,69,0.00,,,0.00,TxWx,2013-08-11 10:02:00,
2013-08-11 05:09:00,8.2,-1.0,29.88,NNW,342,0.0,0.0,71,0.00,,,0.00,TxWx,2013-08-11 10:09:00,
2013-08-11 05:20:00,8.3,-1.0,29.88,North,358,0.0,0.0,71,0.00,,,0.00,TxWx,2013-08-11 10:20:00,
2013-08-11 05:25:00,8.5,0.0,29.87,NNE,15,0.0,0.0,71,0.00,,,0.00,TxWx,2013-08-11 10:25:00,
2013-08-11 05:33:00,8.3,0.0,29.87,NNE,15,0.0,0.0,71,0.00,,,0.00,TxWx,2013-08-11 10:33:00,
2013-08-11 05:40:00,8.4,0.0,29.87,North,2,0.0,0.0,71,0.00,,,0.00,TxWx,2013-08-11 10:40:00,
2013-08-11 05:45:00,8.3,0.0,29.88,North,2,0.0,0.0,72,0.00,,,0.00,TxWx,2013-08-11 10:45:00,
2013-08-11 05:53:00,8.3,0.0,29.87,North,2,0.0,0.0,73,0.00,,,0.00,TxWx,2013-08-11 10:53:00,
2013-08-11 06:02:00,8.1,0.0,29.87,North,2,0.0,0.0,73,0.00,,,0.00,TxWx,2013-08-11 11:02:00,
2013-08-11 06:07:00,8.1,0.0,29.87,North,2,0.0,0.0,73,0.00,,,0.00,TxWx,2013-08-11 11:07:00,
2013-08-11 06:13:00,8.3,0.0,29.87,North,2,0.0,0.0,73,0.00,,,0.00,TxWx,2013-08-11 11:13:00,
2013-08-11 06:20:00,8.3,0.0,29.86,North,9,0.0,0.0,74,0.00,,,0.00,TxWx,2013-08-11 11:20:00,
2013-08-11 06:27:00,8.0,0.0,29.86,NNE,15,0.0,0.0,74,0.00,,,0.00,TxWx,2013-08-11 11:27:00,
2013-08-11 06:33:00,8.2,0.0,29.86,NNE,15,0.0,0.0,74,0.00,,,0.00,TxWx,2013-08-11 11:33:00,
2013-08-11 06:40:00,8.2,0.0,29.86,NNE,15,0.0,0.0,74,0.00,,,0.00,TxWx,2013-08-11 11:40:00,
2013-08-11 06:48:00,8.2,0.0,29.86,North,3,0.0,0.0,74,0.00,,,0.00,TxWx,2013-08-11 11:48:00,
2013-08-11 06:53:00,8.3,0.0,29.86,North,4,0.0,0.0,74,0.00,,,0.00,TxWx,2013-08-11 11:53:00,
2013-08-11 06:59:00,8.6,1.0,29.86,North,7,0.0,0.0,72,0.00,,,0.00,TxWx,2013-08-11 11:59:00,
2013-08-11 07:06:00,9.2,-1.0,29.86,North,0,0.0,0.0,67,0.00,,,0.00,TxWx,2013-08-11 12:06:00,
2013-08-11 07:11:00,9.5,-1.0,29.87,North,1,0.0,0.0,65,0.00,,,0.00,TxWx,2013-08-11 12:11:00,
2013-08-11 07:16:00,9.7,-1.0,29.87,North,8,0.0,0.0,65,0.00,,,0.00,TxWx,2013-08-11 12:16:00,
2013-08-11 07:21:00,9.9,-1.0,29.87,North,3,0.0,0.0,65,0.00,,,0.00,TxWx,2013-08-11 12:21:00,
2013-08-11 07:33:00,9.8,-1.0,29.87,North,8,0.0,0.0,64,0.00,,,0.00,TxWx,2013-08-11 12:33:00,
2013-08-11 07:39:00,9.9,-1.0,29.88,North,357,0.0,0.0,63,0.00,,,0.00,TxWx,2013-08-11 12:39:00,
2013-08-11 07:46:00,10.1,-1.0,29.88,North,1,0.0,0.0,62,0.00,,,0.00,TxWx,2013-08-11 12:46:00,
2013-08-11 07:52:00,9.9,-2.0,29.87,NNW,346,0.0,0.0,62,0.00,,,0.00,TxWx,2013-08-11 12:52:00,
2013-08-11 07:58:00,10.2,-2.0,29.88,North,354,0.0,0.0,62,0.00,,,0.00,TxWx,2013-08-11 12:58:00,
2013-08-11 08:03:00,10.3,-2.0,29.87,North,2,0.0,0.0,61,0.00,,,0.00,TxWx,2013-08-11 13:03:00,
2013-08-11 08:09:00,10.2,-2.0,29.88,North,0,0.0,0.0,61,0.00,,,0.00,TxWx,2013-08-11 13:09:00,
2013-08-11 08:21:00,10.6,-1.0,29.87,North,353,0.0,0.0,61,0.00,,,0.00,TxWx,2013-08-11 13:21:00,
2013-08-11 08:28:00,10.4,-2.0,29.87,North,9,0.0,0.0,61,0.00,,,0.00,TxWx,2013-08-11 13:28:00,
2013-08-11 08:37:00,10.4,-3.0,29.87,North,7,0.0,0.0,59,0.00,,,0.00,TxWx,2013-08-11 13:37:00,
2013-08-11 08:42:00,10.7,-2.0,29.87,North,7,0.0,0.0,58,0.00,,,0.00,TxWx,2013-08-11 13:42:00,
2013-08-11 08:49:00,11.1,-3.0,29.87,North,7,0.0,0.0,55,0.00,,,0.00,TxWx,2013-08-11 13:49:00,
2013-08-11 08:54:00,11.5,-4.0,29.87,NNW,337,0.0,0.0,53,0.00,,,0.00,TxWx,2013-08-11 13:54:00,
2013-08-11 09:00:00,11.7,-4.0,29.87,North,3,0.0,0.0,51,0.00,,,0.00,TxWx,2013-08-11 14:00:00,
2013-08-11 09:07:00,11.5,-4.0,29.87,South,171,0.0,0.0,49,0.00,,,0.00,TxWx,2013-08-11 14:07:00,
2013-08-11 09:12:00,11.6,-5.0,29.87,North,353,0.0,0.0,47,0.00,,,0.00,TxWx,2013-08-11 14:12:00,
2013-08-11 09:17:00,11.9,-7.0,29.87,North,6,0.0,0.0,44,0.00,,,0.00,TxWx,2013-08-11 14:17:00,
2013-08-11 09:23:00,12.0,-6.0,29.87,NNE,16,0.0,0.0,45,0.00,,,0.00,TxWx,2013-08-11 14:23:00,
2013-08-11 09:30:00,12.4,-7.0,29.87,North,358,0.0,0.0,43,0.00,,,0.00,TxWx,2013-08-11 14:30:00,
2013-08-11 09:38:00,12.5,-7.0,29.88,North,4,0.0,0.0,43,0.00,,,0.00,TxWx,2013-08-11 14:38:00,
2013-08-11 09:45:00,12.7,-7.0,29.88,North,1,0.0,0.0,42,0.00,,,0.00,TxWx,2013-08-11 14:45:00,
2013-08-11 09:50:00,12.4,-9.0,29.88,North,357,0.0,0.0,40,0.00,,,0.00,TxWx,2013-08-11 14:50:00,
2013-08-11 09:55:00,12.7,-7.0,29.88,NNW,343,0.0,0.0,41,0.00,,,0.00,TxWx,2013-08-11 14:55:00,
2013-08-11 10:04:00,12.5,-7.0,29.88,NNE,13,0.0,0.0,41,0.00,,,0.00,TxWx,2013-08-11 15:04:00,
2013-08-11 10:09:00,12.7,-8.0,29.87,North,354,0.0,0.0,41,0.00,,,0.00,TxWx,2013-08-11 15:09:00,
2013-08-11 10:15:00,12.9,-7.0,29.87,NNE,19,0.0,0.0,41,0.00,,,0.00,TxWx,2013-08-11 15:15:00,
2013-08-11 10:25:00,13.0,-7.0,29.87,NNW,338,0.0,0.0,42,0.00,,,0.00,TxWx,2013-08-11 15:25:00,
2013-08-11 10:30:00,13.0,-7.0,29.87,North,11,0.0,0.0,43,0.00,,,0.00,TxWx,2013-08-11 15:30:00,
2013-08-11 10:36:00,12.7,-8.0,29.87,NNW,331,0.0,0.0,39,0.00,,,0.00,TxWx,2013-08-11 15:36:00,
2013-08-11 10:41:00,12.8,-7.0,29.87,NNW,341,0.0,0.0,41,0.00,,,0.00,TxWx,2013-08-11 15:41:00,
2013-08-11 10:49:00,12.8,-7.0,29.87,NW,326,0.0,0.0,41,0.00,,,0.00,TxWx,2013-08-11 15:49:00,
2013-08-11 11:00:00,12.7,-6.0,29.87,North,353,0.0,0.0,43,0.00,,,0.00,TxWx,2013-08-11 16:00:00,
2013-08-11 11:05:00,13.0,-6.0,29.88,NNW,340,0.0,0.0,43,0.00,,,0.00,TxWx,2013-08-11 16:05:00,
2013-08-11 11:11:00,12.8,-6.0,29.87,NNW,343,0.0,0.0,44,0.00,,,0.00,TxWx,2013-08-11 16:11:00,
2013-08-11 11:16:00,13.1,-6.0,29.87,North,9,0.0,0.0,44,0.00,,,0.00,TxWx,2013-08-11 16:16:00,
2013-08-11 11:22:00,12.9,-6.0,29.88,North,359,0.0,0.0,43,0.00,,,0.00,TxWx,2013-08-11 16:22:00,
2013-08-11 11:30:00,13.0,-6.0,29.88,NW,323,0.0,0.0,43,0.00,,,0.00,TxWx,2013-08-11 16:30:00,
2013-08-11 11:35:00,13.1,-6.0,29.88,NNW,327,0.0,0.0,44,0.00,,,0.00,TxWx,2013-08-11 16:35:00,
2013-08-11 11:40:00,13.0,-6.0,29.87,NNE,14,0.0,0.0,44,0.00,,,0.00,TxWx,2013-08-11 16:40:00,
2013-08-11 11:46:00,13.1,-6.0,29.87,NW,326,0.0,0.0,44,0.00,,,0.00,TxWx,2013-08-11 16:46:00,
2013-08-11 11:51:00,13.3,-5.0,29.87,NNW,344,0.0,0.0,47,0.00,,,0.00,TxWx,2013-08-11 16:51:00,
2013-08-11 11:57:00,13.3,-6.0,29.87,NNW,342,0.0,0.0,45,0.00,,,0.00,TxWx,2013-08-11 16:57:00,
2013-08-11 12:02:00,13.0,-5.0,29.87,NNE,18,0.0,0.0,45,0.00,,,0.00,TxWx,2013-08-11 17:02:00,
2013-08-11 12:09:00,13.3,-5.0,29.87,NNW,346,0.0,0.0,47,0.00,,,0.00,TxWx,2013-08-11 17:09:00,
2013-08-11 12:14:00,13.5,-4.0,29.87,NNW,335,0.0,0.0,47,0.00,,,0.00,TxWx,2013-08-11 17:14:00,
2013-08-11 12:22:00,13.3,-6.0,29.87,NNE,18,0.0,0.0,44,0.00,,,0.00,TxWx,2013-08-11 17:22:00,
2013-08-11 12:29:00,13.7,-4.0,29.87,NNW,340,0.0,0.0,46,0.00,,,0.00,TxWx,2013-08-11 17:29:00,
2013-08-11 12:34:00,13.6,-4.0,29.87,North,356,0.0,0.0,46,0.00,,,0.00,TxWx,2013-08-11 17:34:00,
2013-08-11 12:40:00,13.6,-3.0,29.87,North,4,0.0,0.0,48,0.00,,,0.00,TxWx,2013-08-11 17:40:00,
2013-08-11 12:45:00,13.7,-4.0,29.86,NNE,21,0.0,0.0,47,0.00,,,0.00,TxWx,2013-08-11 17:45:00,
2013-08-11 12:52:00,13.8,-4.0,29.87,NNW,331,0.0,0.0,47,0.00,,,0.00,TxWx,2013-08-11 17:52:00,
2013-08-11 12:59:00,13.7,-4.0,29.87,North,2,0.0,0.0,47,0.00,,,0.00,TxWx,2013-08-11 17:59:00,
2013-08-11 13:05:00,14.1,-5.0,29.87,North,359,0.0,0.0,44,0.00,,,0.00,TxWx,2013-08-11 18:05:00,
2013-08-11 13:10:00,14.0,-5.0,29.87,North,351,0.0,0.0,43,0.00,,,0.00,TxWx,2013-08-11 18:10:00,
2013-08-11 13:15:00,13.9,-6.0,29.87,North,354,0.0,0.0,42,0.00,,,0.00,TxWx,2013-08-11 18:15:00,
2013-08-11 13:22:00,13.8,-6.0,29.87,NNE,16,0.0,0.0,43,0.00,,,0.00,TxWx,2013-08-11 18:22:00,
2013-08-11 13:27:00,14.1,-7.0,29.87,NNW,342,0.0,0.0,41,0.00,,,0.00,TxWx,2013-08-11 18:27:00,
2013-08-11 13:33:00,13.5,-8.0,29.87,NW,326,0.0,0.0,41,0.00,,,0.00,TxWx,2013-08-11 18:33:00,
2013-08-11 13:41:00,13.8,-6.0,29.87,North,3,0.0,0.0,42,0.00,,,0.00,TxWx,2013-08-11 18:41:00,
2013-08-11 13:48:00,13.9,-6.0,29.86,North,2,0.0,0.0,42,0.00,,,0.00,TxWx,2013-08-11 18:48:00,
2013-08-11 13:55:00,14.1,-6.0,29.86,NNW,343,0.0,0.0,42,0.00,,,0.00,TxWx,2013-08-11 18:55:00,
2013-08-11 14:00:00,14.1,-6.0,29.86,North,1,0.0,0.0,42,0.00,,,0.00,TxWx,2013-08-11 19:00:00,
2013-08-11 14:06:00,14.1,-7.0,29.86,North,354,0.0,0.0,40,0.00,,,0.00,TxWx,2013-08-11 19:06:00,
2013-08-11 14:12:00,14.2,-6.0,29.85,NNW,343,0.0,0.0,42,0.00,,,0.00,TxWx,2013-08-11 19:12:00,
2013-08-11 14:20:00,14.0,-7.0,29.86,NNW,328,0.0,0.0,40,0.00,,,0.00,TxWx,2013-08-11 19:20:00,
2013-08-11 14:29:00,14.0,-7.0,29.85,NW,324,0.0,0.0,41,0.00,,,0.00,TxWx,2013-08-11 19:29:00,
2013-08-11 14:34:00,13.9,-7.0,29.84,NNE,13,0.0,0.0,41,0.00,,,0.00,TxWx,2013-08-11 19:34:00,
2013-08-11 14:39:00,14.3,-6.0,29.84,NNW,343,0.0,0.0,42,0.00,,,0.00,TxWx,2013-08-11 19:39:00,
2013-08-11 14:44:00,13.8,-7.0,29.84,North,11,0.0,0.0,40,0.00,,,0.00,TxWx,2013-08-11 19:44:00,
2013-08-11 14:51:00,13.9,-6.0,29.84,NNE,19,0.0,0.0,42,0.00,,,0.00,TxWx,2013-08-11 19:51:00,
2013-08-11 15:00:00,14.2,-6.0,29.84,North,2,0.0,0.0,42,0.00,,,0.00,TxWx,2013-08-11 20:00:00,
2013-08-11 15:05:00,14.3,-6.0,29.84,NNW,344,0.0,0.0,42,0.00,,,0.00,TxWx,2013-08-11 20:05:00,
2013-08-11 15:14:00,14.0,-6.0,29.83,NNE,12,0.0,0.0,41,0.00,,,0.00,TxWx,2013-08-11 20:14:00,
2013-08-11 15:21:00,14.0,-6.0,29.83,North,355,0.0,0.0,42,0.00,,,0.00,TxWx,2013-08-11 20:21:00,
2013-08-11 15:28:00,13.8,-6.0,29.82,NNE,16,0.0,0.0,42,0.00,,,0.00,TxWx,2013-08-11 20:28:00,
2013-08-11 15:33:00,14.2,-5.0,29.82,NNE,19,0.0,0.0,43,0.00,,,0.00,TxWx,2013-08-11 20:33:00,
2013-08-11 15:38:00,14.3,-6.0,29.82,North,11,0.0,0.0,42,0.00,,,0.00,TxWx,2013-08-11 20:38:00,
2013-08-11 15:45:00,14.2,-6.0,29.82,North,10,0.0,0.0,42,0.00,,,0.00,TxWx,2013-08-11 20:45:00,
2013-08-11 15:51:00,14.2,-6.0,29.82,NNE,20,0.0,0.0,42,0.00,,,0.00,TxWx,2013-08-11 20:51:00,
2013-08-11 15:56:00,14.3,-5.0,29.82,NNE,22,0.0,0.0,43,0.00,,,0.00,TxWx,2013-08-11 20:56:00,
2013-08-11 16:01:00,13.8,-6.0,29.82,NNE,17,0.0,0.0,42,0.00,,,0.00,TxWx,2013-08-11 21:01:00,
2013-08-11 16:09:00,14.3,-5.0,29.82,North,1,0.0,0.0,43,0.00,,,0.00,TxWx,2013-08-11 21:09:00,
2013-08-11 16:14:00,14.1,-6.0,29.82,NNE,22,0.0,0.0,43,0.00,,,0.00,TxWx,2013-08-11 21:14:00,
2013-08-11 16:22:00,14.4,-6.0,29.82,NNW,329,0.0,0.0,42,0.00,,,0.00,TxWx,2013-08-11 21:22:00,
2013-08-11 16:28:00,14.5,-6.0,29.81,NNE,16,0.0,0.0,43,0.00,,,0.00,TxWx,2013-08-11 21:28:00,
2013-08-11 16:34:00,14.2,-6.0,29.81,NNW,328,0.0,0.0,42,0.00,,,0.00,TxWx,2013-08-11 21:34:00,
2013-08-11 16:40:00,14.5,-5.0,29.81,NNE,22,0.0,0.0,43,0.00,,,0.00,TxWx,2013-08-11 21:40:00,
2013-08-11 16:46:00,14.4,-6.0,29.81,NNE,23,0.0,0.0,42,0.00,,,0.00,TxWx,2013-08-11 21:46:00,
2013-08-11 16:54:00,14.3,-6.0,29.81,NNE,18,0.0,0.0,43,0.00,,,0.00,TxWx,2013-08-11 21:54:00,
2013-08-11 16:59:00,14.5,-6.0,29.81,NNW,327,0.0,0.0,42,0.00,,,0.00,TxWx,2013-08-11 21:59:00,
2013-08-11 17:05:00,14.2,-5.0,29.81,NNE,19,0.0,0.0,43,0.00,,,0.00,TxWx,2013-08-11 22:05:00,
2013-08-11 17:11:00,14.1,-5.0,29.80,NNE,22,0.0,0.0,44,0.00,,,0.00,TxWx,2013-08-11 22:11:00,
2013-08-11 17:16:00,14.0,-5.0,29.80,NNE,20,0.0,0.0,44,0.00,,,0.00,TxWx,2013-08-11 22:16:00,
2013-08-11 17:21:00,14.5,-5.0,29.80,NNE,20,0.0,0.0,44,0.00,,,0.00,TxWx,2013-08-11 22:21:00,
2013-08-11 17:27:00,14.4,-5.0,29.81,NNE,18,0.0,0.0,43,0.00,,,0.00,TxWx,2013-08-11 22:27:00,
2013-08-11 17:33:00,14.1,-5.0,29.81,NNE,21,0.0,0.0,44,0.00,,,0.00,TxWx,2013-08-11 22:33:00,
2013-08-11 17:40:00,14.0,-5.0,29.80,NNE,22,0.0,0.0,45,0.00,,,0.00,TxWx,2013-08-11 22:40:00,
2013-08-11 17:47:00,14.0,-5.0,29.80,NNE,22,0.0,0.0,45,0.00,,,0.00,TxWx,2013-08-11 22:47:00,
2013-08-11 17:53:00,13.7,-4.0,29.80,NNE,22,0.0,0.0,46,0.00,,,0.00,TxWx,2013-08-11 22:53:00,
2013-08-11 17:58:00,14.0,-4.0,29.79,NNE,22,0.0,0.0,47,0.00,,,0.00,TxWx,2013-08-11 22:58:00,
2013-08-11 18:03:00,13.9,-3.0,29.79,NNE,21,0.0,0.0,48,0.00,,,0.00,TxWx,2013-08-11 23:03:00,
2013-08-11 18:15:00,13.7,-3.0,29.79,NNE,19,0.0,0.0,48,0.00,,,0.00,TxWx,2013-08-11 23:15:00,
2013-08-11 18:20:00,13.6,-3.0,29.79,NNE,19,0.0,0.0,48,0.00,,,0.00,TxWx,2013-08-11 23:20:00,
2013-08-11 18:29:00,13.5,-3.0,29.79,NNE,23,0.0,0.0,48,0.00,,,0.00,TxWx,2013-08-11 23:29:00,
2013-08-11 18:34:00,13.4,-4.0,29.78,NNE,22,0.0,0.0,49,0.00,,,0.00,TxWx,2013-08-11 23:34:00,
2013-08-11 18:39:00,13.5,-3.0,29.79,NNE,22,0.0,0.0,50,0.00,,,0.00,TxWx,2013-08-11 23:39:00,
2013-08-11 18:45:00,13.2,-3.0,29.78,NNE,22,0.0,0.0,51,0.00,,,0.00,TxWx,2013-08-11 23:45:00,
2013-08-11 18:50:00,13.4,-3.0,29.78,NNE,22,0.0,0.0,51,0.00,,,0.00,TxWx,2013-08-11 23:50:00,
2013-08-11 18:55:00,13.2,-3.0,29.78,NNE,22,0.0,0.0,51,0.00,,,0.00,TxWx,2013-08-11 23:55:00,
2013-08-11 19:02:00,13.3,-3.0,29.79,NNE,22,0.0,0.0,52,0.00,,,0.00,TxWx,2013-08-12 00:02:00,
2013-08-11 19:12:00,13.1,-2.0,29.79,NNE,23,0.0,0.0,53,0.00,,,0.00,TxWx,2013-08-12 00:12:00,
2013-08-11 19:18:00,13.3,-2.0,29.78,NNE,22,0.0,0.0,53,0.00,,,0.00,TxWx,2013-08-12 00:18:00,
2013-08-11 19:23:00,13.2,-2.0,29.78,NNE,21,0.0,0.0,53,0.00,,,0.00,TxWx,2013-08-12 00:23:00,
2013-08-11 19:28:00,13.2,-2.0,29.78,NNE,21,0.0,0.0,53,0.00,,,0.00,TxWx,2013-08-12 00:28:00,
2013-08-11 19:33:00,13.0,-2.0,29.78,NNE,22,0.0,0.0,53,0.00,,,0.00,TxWx,2013-08-12 00:33:00,
2013-08-11 19:38:00,13.0,-2.0,29.78,NNE,22,0.0,0.0,54,0.00,,,0.00,TxWx,2013-08-12 00:38:00,
2013-08-11 19:46:00,12.9,-1.0,29.78,NNE,22,0.0,0.0,55,0.00,,,0.00,TxWx,2013-08-12 00:46:00,
2013-08-11 19:51:00,12.8,-1.0,29.78,NNE,22,0.0,0.0,55,0.00,,,0.00,TxWx,2013-08-12 00:51:00,
2013-08-11 19:57:00,12.8,-1.0,29.78,NNE,22,0.0,0.0,56,0.00,,,0.00,TxWx,2013-08-12 00:57:00,
2013-08-11 20:08:00,12.7,0.0,29.78,NNE,23,0.0,0.0,57,0.00,,,0.00,TxWx,2013-08-12 01:08:00,
2013-08-11 20:13:00,12.5,-1.0,29.78,NNE,22,0.0,0.0,58,0.00,,,0.00,TxWx,2013-08-12 01:13:00,
2013-08-11 20:18:00,12.4,-1.0,29.79,NNE,21,0.0,0.0,59,0.00,,,0.00,TxWx,2013-08-12 01:18:00,
2013-08-11 20:24:00,12.3,0.0,29.79,NNE,21,0.0,0.0,60,0.00,,,0.00,TxWx,2013-08-12 01:24:00,
2013-08-11 20:29:00,12.0,0.0,29.80,NNE,21,0.0,0.0,60,0.00,,,0.00,TxWx,2013-08-12 01:29:00,
2013-08-11 20:35:00,12.1,0.0,29.80,NNE,23,0.0,0.0,61,0.00,,,0.00,TxWx,2013-08-12 01:35:00,
2013-08-11 20:40:00,12.2,0.0,29.80,NNE,23,0.0,0.0,62,0.00,,,0.00,TxWx,2013-08-12 01:40:00,
2013-08-11 20:48:00,11.9,1.0,29.80,NNE,22,0.0,0.0,63,0.00,,,0.00,TxWx,2013-08-12 01:48:00,
2013-08-11 20:53:00,12.0,1.0,29.80,NNE,22,0.0,0.0,64,0.00,,,0.00,TxWx,2013-08-12 01:53:00,
2013-08-11 20:59:00,11.7,1.0,29.80,NNE,22,0.0,0.0,64,0.00,,,0.00,TxWx,2013-08-12 01:59:00,
2013-08-11 21:04:00,11.7,1.0,29.80,NNE,22,0.0,0.0,65,0.00,,,0.00,TxWx,2013-08-12 02:04:00,
2013-08-11 21:10:00,11.7,2.0,29.80,NNE,23,0.0,0.0,65,0.00,,,0.00,TxWx,2013-08-12 02:10:00,
2013-08-11 21:17:00,11.7,2.0,29.80,NNE,25,0.0,0.0,66,0.00,,,0.00,TxWx,2013-08-12 02:17:00,
2013-08-11 21:23:00,11.7,2.0,29.80,NNE,25,0.0,0.0,66,0.00,,,0.00,TxWx,2013-08-12 02:23:00,
2013-08-11 21:30:00,11.7,2.0,29.80,NNE,26,0.0,0.0,66,0.00,,,0.00,TxWx,2013-08-12 02:30:00,
2013-08-11 21:35:00,11.9,2.0,29.80,NNE,24,0.0,0.0,66,0.00,,,0.00,TxWx,2013-08-12 02:35:00,
2013-08-11 21:41:00,12.0,2.0,29.80,NNE,21,0.0,0.0,65,0.00,,,0.00,TxWx,2013-08-12 02:41:00,
2013-08-11 21:47:00,12.1,2.0,29.80,NNE,23,0.0,0.0,65,0.00,,,0.00,TxWx,2013-08-12 02:47:00,
2013-08-11 21:53:00,12.0,2.0,29.80,NNE,23,0.0,0.0,65,0.00,,,0.00,TxWx,2013-08-12 02:53:00,
2013-08-11 21:58:00,12.0,2.0,29.80,NNE,24,0.0,0.0,65,0.00,,,0.00,TxWx,2013-08-12 02:58:00,
2013-08-11 22:03:00,11.8,2.0,29.80,NNE,24,0.0,0.0,66,0.00,,,0.00,TxWx,2013-08-12 03:03:00,
2013-08-11 22:10:00,11.8,2.0,29.80,NNE,22,0.0,0.0,66,0.00,,,0.00,TxWx,2013-08-12 03:10:00,
2013-08-11 22:18:00,11.8,2.0,29.80,NNE,24,0.0,0.0,67,0.00,,,0.00,TxWx,2013-08-12 03:18:00,
2013-08-11 22:25:00,11.7,2.0,29.80,NNE,24,0.0,0.0,67,0.00,,,0.00,TxWx,2013-08-12 03:25:00,
2013-08-11 22:30:00,11.8,2.0,29.80,NNE,24,0.0,0.0,67,0.00,,,0.00,TxWx,2013-08-12 03:30:00,
2013-08-11 22:39:00,11.8,2.0,29.80,NNE,18,0.0,0.0,67,0.00,,,0.00,TxWx,2013-08-12 03:39:00,
2013-08-11 22:46:00,11.9,2.0,29.80,North,11,0.0,0.0,67,0.00,,,0.00,TxWx,2013-08-12 03:46:00,
2013-08-11 22:52:00,11.8,2.0,29.80,NNE,20,0.0,0.0,67,0.00,,,0.00,TxWx,2013-08-12 03:52:00,
2013-08-11 23:01:00,11.7,2.0,29.80,NNE,18,0.0,0.0,67,0.00,,,0.00,TxWx,2013-08-12 04:01:00,
2013-08-11 23:02:00,11.7,2.0,29.80,NNE,19,0.0,0.0,67,0.00,,,0.00,TxWx,2013-08-12 04:02:00,
2013-08-11 23:03:00,11.8,2.0,29.80,NNE,18,0.0,0.0,67,0.00,,,0.00,TxWx,2013-08-12 04:03:00,
2013-08-11 23:04:00,11.8,2.0,29.80,NNE,17,0.0,0.0,67,0.00,,,0.00,TxWx,2013-08-12 04:04:00,
2013-08-11 23:09:00,11.8,2.0,29.80,NNE,22,0.0,0.0,67,0.00,,,0.00,TxWx,2013-08-12 04:09:00,
2013-08-11 23:14:00,11.9,2.0,29.80,NNE,19,0.0,0.0,67,0.00,,,0.00,TxWx,2013-08-12 04:14:00,
2013-08-11 23:20:00,11.8,2.0,29.80,NNE,16,0.0,0.0,67,0.00,,,0.00,TxWx,2013-08-12 04:20:00,
2013-08-11 23:25:00,11.8,2.0,29.79,NNE,24,0.0,0.0,67,0.00,,,0.00,TxWx,2013-08-12 04:25:00,
2013-08-11 23:30:00,11.8,2.0,29.80,NNE,24,0.0,0.0,68,0.00,,,0.00,TxWx,2013-08-12 04:30:00,
2013-08-11 23:35:00,11.6,3.0,29.80,NNE,23,0.0,0.0,69,0.00,,,0.00,TxWx,2013-08-12 04:35:00,
2013-08-11 23:40:00,11.5,3.0,29.79,NNE,23,0.0,0.0,69,0.00,,,0.00,TxWx,2013-08-12 04:40:00,
2013-08-11 23:45:00,11.5,2.0,29.80,NNE,24,0.0,0.0,70,0.00,,,0.00,TxWx,2013-08-12 04:45:00,
2013-08-11 23:50:00,11.4,2.0,29.80,NNE,24,0.0,0.0,70,0.00,,,0.00,TxWx,2013-08-12 04:50:00,
2013-08-11 23:56:00,11.3,2.0,29.79,NNE,23,0.0,0.0,71,0.00,,,0.00,TxWx,2013-08-12 04:56:00,